Miscellaneous Local Product
Issued by NWS North Platte, NE

Home | Current Version | Previous Version | Text Only | Print | Product List | Glossary On
Versions: 1 2 3 4 5 6 7 8 9 10 11 12 13 14 15 16 17 18 19 20 21 22 23 24 25 26 27 28 29 30 31 32 33 34 35 36 37 38 39 40 41 42 43 44 45 46 47 48 49 50
000
AXUS43 KLBF 261210
MISLBF


WESTERN AND NORTH CENTRAL NEBRASKA HOURLY WEATHER ROUNDUP
NATIONAL WEATHER SERVICE NORTH PLATTE NE
700 AM CDT TUE MAY 26 2015

***STATIONS NOT REPORTING VARIABLES SUCH AS SKY/WEATHER OR
PRESSURE ARE PROVIDED BY THE NEBRASKA DEPARTMENT OF
ROADS...RAWS...AND APRS NETWORKS...AND ARE NOT UNDER
NATIONAL WEATHER SERVICE QUALITY CONTROL***

...OBSERVATIONS IN AND NEAR THE EASTERN PANHANDLE OF NEBRASKA...

CITY           SKY/WX    TMP DP  RH WIND       PRES   REMARKS
PINE RIDGE     CLOUDY    52  49  89 NE5       29.98R
CHADRON        CLOUDY    54  53  97 CALM      29.98R
ALLIANCE       CLOUDY    52  51  97 NW7       29.97R
SIDNEY         FOG       47  47 100 NW8       30.00R VSB 3/4
WHITECLAY        N/A     51  49  95 CALM        N/A
BIG SPRINGS      N/A     51  50  96 CALM        N/A
$$

...OBSERVATIONS IN NORTH CENTRAL NEBRASKA...

CITY           SKY/WX    TMP DP  RH WIND       PRES   REMARKS
VALENTINE      MOCLDY    52  49  89 N7        29.94R
THEDFORD       PTCLDY    52  50  90 N8        29.94R
AINSWORTH      PTCLDY    51  50  97 N9        29.92R
O`NEILL        CLOUDY    55  53  94 N13       29.86R
ORD            CLOUDY    55  51  86 NW12      29.85R
BROKEN BOW     CLOUDY    54  51  90 N7        29.89R
VALENTINE NWR    N/A     49  49  99 N6G13       N/A
SPRINGVIEW       N/A     49  47  93 W3          N/A
HALSEY           N/A     50  50  99 NW6         N/A
ROSE             N/A     53  53  99 SE6         N/A
NEWPORT          N/A     54  52  94 NW6         N/A
SARGENT          N/A     53  51  95 CALM        N/A
COMSTOCK         N/A     57  55  94 W9          N/A
EWING            N/A     55  54  96 N8G15       N/A
$$

...OBSERVATIONS IN SOUTHWEST NEBRASKA AND FAR NORTHEAST COLORADO...

CITY           SKY/WX    TMP DP  RH WIND       PRES   REMARKS
WRAY           FAIR     N/A N/A N/A W3        29.96S
IMPERIAL       PTCLDY    50  48  93 NW9       29.94R
OGALLALA       CLOUDY    54  52  95 N6        29.95R
NORTH PLATTE   PTCLDY    54  49  83 NW5       29.92R
MCCOOK         MOCLDY    53  50  89 NW8       29.90R
LEXINGTON      MOCLDY    56  55  94 N9        29.88R
PAXTON           N/A     54  52  93 NW3         N/A
GOTHENBURG       N/A     56  51  85 NW6         N/A
CALLAWAY         N/A     53  51  95 N12         N/A
$$

...NORTH PLATTE AREA...

CITY           SKY/WX    TMP DP  RH WIND       PRES   REMARKS
AIRPORT        PTCLDY    54  49  83 NW5       29.92R
DOWNTOWN         N/A     55  51  85 CALM        N/A
$$

...SOME WEATHER OBSERVATIONS FROM AROUND THE REGION...

CITY           SKY/WX    TMP DP  RH WIND       PRES   REMARKS
DENVER         PTCLDY    47  42  83 SW8       30.03R
LARAMIE        PTCLDY    38  36  92 SE7       30.07R WCI  33
CHEYENNE       PTCLDY    44  37  76 W9        30.03S
SCOTTSBLUFF    CLOUDY    47  46  97 W5        30.00R FOG
RAPID CITY     CLOUDY    52  51  97 E3        29.98R
PIERRE         MOCLDY    52  51  97 NW9       29.92R
WINNER         MOCLDY    52  49  89 NW8       29.91R FOG
SIOUX FALLS    CLOUDY    55  52  89 N8        29.82R
OMAHA          CLOUDY    61  59  93 S6        29.78R
GRAND ISLAND   MOCLDY    57  55  93 NW12      29.81R
KANSAS CITY    FOG       60  60 100 SW8       29.84R VSB 1
WICHITA        MOCLDY    56  56 100 S5        29.90R
HAYS           CLEAR     54  46  76 W10       29.89R
LIBERAL        CLEAR     54  48  82 E3        29.97R
GOODLAND       CLEAR     46  44  93 W8        29.96R
$$



USA.gov is the U.S. government's official web portal to all federal, state and local government web resources and services.